GW7239 Weather Reports


time (UTC)temp
C
wind
direction
speed
KPH
gust
KPH
rain 1hr
cm
rain 24hr
cm
rain mn
cm
humidity
%
barometer
mb
20260502210538 8 253 9.7 12.9 0.00 0.00 0.00 51 1015.1
20260502210036 8 273 4.8 8.0 0.00 0.00 0.00 49 1014.9
20260502205532 8 191 0.0 0.0 0.00 0.00 0.00 52 1015.0
20260502205030 8 237 4.8 4.8 0.00 0.00 0.00 52 1015.2
20260502204526 8 265 4.8 9.7 0.00 0.00 0.00 51 1015.0
20260502204024 8 204 6.4 9.7 0.00 0.00 0.00 47 1015.3
20260502203521 8 262 16.1 17.7 0.00 0.00 0.00 52 1015.1
20260502203018 8 269 3.2 4.8 0.00 0.00 0.00 54 1015.3
20260502202514 8 294 6.4 14.5 0.00 0.00 0.00 49 1015.3
20260502202013 8 107 1.6 1.6 0.00 0.00 0.00 49 1015.4
20260502201508 8 185 1.6 3.2 0.00 0.00 0.00 48 1015.4
20260502201004 8 212 4.8 4.8 0.00 0.00 0.00 50 1015.5
20260502200500 9 176 0.0 0.0 0.00 0.00 0.00 47 1015.4
20260502195958 8 222 4.8 4.8 0.00 0.00 0.00 51 1015.3
20260502195456 8 271 4.8 8.0 0.00 0.00 0.00 49 1015.6
20260502194951 8 241 6.4 8.0 0.00 0.00 0.00 50 1015.8
20260502194449 8 277 4.8 8.0 0.00 0.00 0.00 48 1015.9
20260502193944 8 211 4.8 4.8 0.00 0.00 0.00 48 1015.8
20260502193442 8 219 8.0 9.7 0.00 0.00 0.00 52 1015.8
20260502192937 8 224 4.8 4.8 0.00 0.00 0.00 54 1015.9
20260502192434 8 221 6.4 11.3 0.00 0.00 0.00 47 1016.3
20260502191931 8 301 1.6 3.2 0.00 0.00 0.00 46 1016.1
20260502191429 8 194 4.8 4.8 0.00 0.00 0.00 48 1016.1
20260502190927 8 251 1.6 1.6 0.00 0.00 0.00 49 1016.0
20260502190424 7 273 8.0 11.3 0.00 0.00 0.00 52 1016.2
20260502185920 7 265 14.5 17.7 0.00 0.00 0.00 52 1016.2
20260502185415 7 277 9.7 14.5 0.00 0.00 0.00 52 1016.3
20260502184913 7 197 1.6 3.2 0.00 0.00 0.00 51 1016.4
20260502184408 7 276 14.5 17.7 0.00 0.00 0.00 50 1016.4
20260502183905 7 275 12.9 16.1 0.00 0.00 0.00 52 1016.4
20260502183401 8 260 17.7 20.9 0.00 0.00 0.00 53 1016.4
20260502182856 7 259 6.4 9.7 0.00 0.00 0.00 52 1016.4
20260502182352 7 237 3.2 4.8 0.00 0.00 0.00 56 1016.7
20260502181848 7 254 14.5 20.9 0.00 0.00 0.00 50 1016.7
20260502181347 7 274 14.5 16.1 0.00 0.00 0.00 51 1016.7
20260502180845 8 209 3.2 4.8 0.00 0.00 0.00 49 1016.6
20260502180342 7 132 1.6 1.6 0.00 0.00 0.00 51 1016.6
20260502170300 6 275 11.3 12.9 0.00 0.00 0.00 55 1017.0
20260502164248 6 242 4.8 9.7 0.00 0.00 0.00 53 1017.4
20260502163744 7 282 12.9 14.5 0.00 0.00 0.00 53 1017.4
20260502163241 7 292 1.6 3.2 0.00 0.00 0.00 52 1017.1
20260502162738 6 313 8.0 11.3 0.00 0.00 0.00 54 1017.2
20260502162234 7 261 4.8 11.3 0.00 0.00 0.00 52 1017.0
20260502161731 7 209 1.6 3.2 0.00 0.00 0.00 52 1017.4
20260502161227 7 158 0.0 1.6 0.00 0.00 0.00 52 1017.1
20260502160726 7 141 0.0 1.6 0.00 0.00 0.00 54 1017.5
20260502160225 7 202 1.6 1.6 0.00 0.00 0.00 52 1017.1
20260502152149 7 260 8.0 11.3 0.00 0.00 0.00 51 1017.4
20260502151646 6 228 4.8 4.8 0.00 0.00 0.00 56 1017.5
20260502151143 6 205 1.6 1.6 0.00 0.00 0.00 53 1017.2
20260502150641 6 269 3.2 3.2 0.00 0.00 0.00 54 1017.0
20260502150137 6 210 1.6 1.6 0.00 0.00 0.00 53 1017.4
20260502130526 5 211 3.2 4.8 0.00 0.00 0.00 66 1017.5
20260502123509 2 199 0.0 1.6 0.00 0.00 0.00 77 1017.5
20260502123005 2 181 1.6 1.6 0.00 0.00 0.00 78 1017.6
20260502122501 2 187 0.0 1.6 0.00 0.00 0.00 79 1017.6
20260502121959 2 190 1.6 3.2 0.00 0.00 0.00 80 1017.7
20260502121456 2 193 1.6 1.6 0.00 0.00 0.00 81 1017.6
20260502120954 2 200 0.0 0.0 0.00 0.00 0.00 81 1017.7
20260502120450 1 187 0.0 0.0 0.00 0.00 0.00 82 1017.4
20260502115444 1 190 0.0 0.0 0.00 0.00 0.00 84 1017.6
20260502114940 1 199 0.0 0.0 0.00 0.00 0.00 85 1017.6
20260502114437 1 208 0.0 0.0 0.00 0.00 0.00 86 1017.5
20260502113935 1 199 1.6 1.6 0.00 0.00 0.00 87 1017.5
20260502113432 0 181 0.0 0.0 0.00 0.00 0.00 88 1017.6
20260502112931 0 182 0.0 0.0 0.00 0.00 0.00 88 1017.2
20260502112428 0 193 0.0 0.0 0.00 0.00 0.00 89 1017.4
20260502111925 0 193 0.0 0.0 0.00 0.00 0.00 89 1017.4
20260502111422 0 184 0.0 0.0 0.00 0.00 0.00 89 1017.2
20260502110919 0 178 0.0 0.0 0.00 0.00 0.00 88 1017.1
20260502110417 0 182 0.0 0.0 0.00 0.00 0.00 88 1017.4
20260502105914 0 176 0.0 0.0 0.00 0.00 0.00 88 1017.2
20260502105411 0 175 0.0 0.0 0.00 0.00 0.00 88 1017.0
20260502104909 0 185 0.0 0.0 0.00 0.00 0.00 87 1017.1
20260502104406 0 181 0.0 0.0 0.00 0.00 0.00 87 1017.0
20260502103903 0 188 0.0 0.0 0.00 0.00 0.00 87 1017.0
20260502103401 0 185 0.0 0.0 0.00 0.00 0.00 87 1017.0
20260502102858 0 179 0.0 0.0 0.00 0.00 0.00 87 1016.9
20260502102354 0 182 0.0 0.0 0.00 0.00 0.00 86 1017.1
20260502101852 0 188 0.0 0.0 0.00 0.00 0.00 86 1016.9
20260502101350 0 188 0.0 0.0 0.00 0.00 0.00 86 1017.0
20260502100848 0 186 0.0 0.0 0.00 0.00 0.00 86 1016.8
20260502100347 0 184 0.0 0.0 0.00 0.00 0.00 85 1016.8
20260502091321 0 184 0.0 0.0 0.00 0.00 0.00 81 1016.6
20260502090819 0 187 0.0 0.0 0.00 0.00 0.00 81 1016.7
20260502090315 1 185 0.0 0.0 0.00 0.00 0.00 80 1016.7
20260502071210 3 201 1.6 1.6 0.00 0.00 0.00 72 1016.3
20260502070708 3 204 0.0 0.0 0.00 0.00 0.00 70 1016.4
20260502070206 3 193 0.0 0.0 0.00 0.00 0.00 70 1016.3
20260502065704 3 185 0.0 0.0 0.00 0.00 0.00 70 1016.3
20260502065201 3 198 0.0 0.0 0.00 0.00 0.00 69 1016.1
20260502064700 3 194 0.0 0.0 0.00 0.00 0.00 69 1016.3
20260502064156 3 205 0.0 0.0 0.00 0.00 0.00 71 1016.4
20260502063655 3 196 0.0 0.0 0.00 0.00 0.00 69 1016.4
20260502063152 3 196 0.0 0.0 0.00 0.00 0.00 68 1016.7
20260502062649 3 206 0.0 0.0 0.00 0.00 0.00 69 1016.4
20260502062147 3 197 0.0 0.0 0.00 0.00 0.00 68 1016.6
20260502061645 3 189 0.0 0.0 0.00 0.00 0.00 68 1016.4
20260502061142 3 170 0.0 1.6 0.00 0.00 0.00 68 1016.6
20260502060642 3 230 0.0 1.6 0.00 0.00 0.00 68 1016.6
20260502060139 3 185 0.0 0.0 0.00 0.00 0.00 68 1016.3
20260502055637 4 158 0.0 1.6 0.00 0.00 0.00 68 1016.4
20260502055135 4 191 0.0 0.0 0.00 0.00 0.00 67 1016.6
20260502054634 4 194 0.0 0.0 0.00 0.00 0.00 68 1016.6
20260502054130 4 182 1.6 1.6 0.00 0.00 0.00 68 1016.6
20260502053628 4 190 0.0 0.0 0.00 0.00 0.00 67 1016.6
20260502053125 4 194 0.0 0.0 0.00 0.00 0.00 67 1016.4
20260502052623 4 191 0.0 0.0 0.00 0.00 0.00 67 1016.8
20260502052121 4 177 0.0 0.0 0.00 0.00 0.00 66 1016.5
20260502051619 4 168 1.6 1.6 0.00 0.00 0.00 66 1016.6
20260502051117 4 196 0.0 0.0 0.00 0.00 0.00 66 1016.6
20260502050613 4 189 0.0 0.0 0.00 0.00 0.00 66 1016.5
20260502050110 4 186 0.0 0.0 0.00 0.00 0.00 67 1016.5
20260502045606 4 203 0.0 0.0 0.00 0.00 0.00 65 1016.3
20260502045103 4 176 0.0 0.0 0.00 0.00 0.00 67 1016.4
20260502044559 4 181 0.0 0.0 0.00 0.00 0.00 65 1016.4
20260502044056 5 196 0.0 0.0 0.00 0.00 0.00 64 1016.2
20260502043554 5 185 0.0 0.0 0.00 0.00 0.00 65 1016.5
20260502043051 5 194 0.0 0.0 0.00 0.00 0.00 66 1016.3
20260502042551 5 189 0.0 0.0 0.00 0.00 0.00 64 1016.1
20260502042049 5 193 0.0 0.0 0.00 0.00 0.00 64 1016.2
20260502041546 5 192 0.0 0.0 0.00 0.00 0.00 65 1016.1
20260502041043 5 186 0.0 0.0 0.00 0.00 0.00 65 1016.3
20260502040539 5 186 0.0 0.0 0.00 0.00 0.00 64 1016.1
20260502040037 5 195 0.0 0.0 0.00 0.00 0.00 65 1016.1
20260502035532 5 188 0.0 0.0 0.00 0.00 0.00 64 1016.0
20260502035030 5 183 0.0 0.0 0.00 0.00 0.00 64 1016.1
20260502034528 5 190 0.0 0.0 0.00 0.00 0.00 64 1016.1
20260502034026 5 196 0.0 0.0 0.00 0.00 0.00 63 1016.1
20260502033524 5 183 0.0 0.0 0.00 0.00 0.00 65 1016.0
20260502033021 5 191 0.0 0.0 0.00 0.00 0.00 64 1016.0
20260502032517 5 190 0.0 0.0 0.00 0.00 0.00 64 1016.0
20260502032014 5 197 0.0 0.0 0.00 0.00 0.00 62 1015.9
20260502031512 5 188 0.0 0.0 0.00 0.00 0.00 63 1015.8
20260502031010 5 140 0.0 0.0 0.00 0.00 0.00 63 1015.9
20260502030508 5 182 0.0 0.0 0.00 0.00 0.00 63 1016.0
20260502030006 5 176 0.0 1.6 0.00 0.00 0.00 63 1015.9
20260502025503 5 192 0.0 0.0 0.00 0.00 0.00 62 1016.1
20260502025000 5 194 0.0 0.0 0.00 0.00 0.00 62 1015.9
20260502024458 5 184 0.0 0.0 0.00 0.00 0.00 62 1015.8
20260502023956 5 95 1.6 3.2 0.00 0.00 0.00 62 1015.7
20260502023453 5 65 3.2 3.2 0.00 0.00 0.00 63 1015.8
20260502022951 5 194 0.0 0.0 0.00 0.00 0.00 62 1015.6
20260502022447 5 198 0.0 0.0 0.00 0.00 0.00 63 1015.6
20260502021944 5 179 1.6 3.2 0.00 0.00 0.00 63 1016.0
20260502021442 5 149 1.6 1.6 0.00 0.00 0.00 62 1015.9
20260502020938 5 180 0.0 0.0 0.00 0.00 0.00 64 1015.6
20260502020436 5 201 0.0 1.6 0.00 0.00 0.00 62 1015.7
20260502015932 5 198 0.0 0.0 0.00 0.00 0.00 63 1015.3
20260502015431 5 128 0.0 1.6 0.00 0.00 0.00 62 1015.4
20260502014927 5 195 0.0 0.0 0.00 0.00 0.00 62 1015.4
20260502014424 6 190 0.0 0.0 0.00 0.00 0.00 63 1015.3
20260502013920 6 188 0.0 0.0 0.00 0.00 0.00 63 1015.4
20260502013416 6 54 3.2 8.0 0.00 0.00 0.00 61 1015.3
20260502012913 6 166 0.0 0.0 0.00 0.00 0.00 60 1015.2
20260502012411 6 208 0.0 0.0 0.00 0.00 0.00 62 1015.0
20260502011908 6 213 3.2 3.2 0.00 0.00 0.00 63 1014.9
20260502011404 6 216 1.6 1.6 0.00 0.00 0.00 63 1015.0
20260502010901 6 269 4.8 8.0 0.00 0.00 0.00 66 1015.0
20260502010357 6 199 0.0 1.6 0.00 0.00 0.00 67 1014.8
20260502005854 6 196 0.0 0.0 0.00 0.00 0.00 67 1015.0
20260502005352 6 200 0.0 0.0 0.00 0.00 0.00 67 1015.0
20260502004849 6 219 1.6 3.2 0.00 0.00 0.00 66 1014.9
20260502004345 6 209 1.6 1.6 0.00 0.00 0.00 66 1014.8
20260502003843 6 294 3.2 4.8 0.00 0.00 0.00 66 1014.8
20260502003340 6 210 1.6 3.2 0.00 0.00 0.00 66 1014.9
20260502002836 6 217 4.8 8.0 0.00 0.00 0.00 67 1015.0
20260502002334 6 204 0.0 1.6 0.00 0.00 0.00 65 1014.7
20260502001831 6 258 4.8 8.0 0.00 0.00 0.00 66 1015.0
20260502001328 6 222 4.8 4.8 0.00 0.00 0.00 66 1014.8
20260502000826 6 288 6.4 9.7 0.00 0.00 0.00 65 1014.7
20260502000325 6 214 0.0 0.0 0.00 0.00 0.00 66 1014.8
20260501235820 6 204 0.0 0.0 0.00 0.00 0.00 64 1014.9
20260501235315 6 223 3.2 4.8 0.00 0.00 0.00 66 1014.7
20260501234811 6 210 0.0 1.6 0.00 0.00 0.00 65 1014.8
20260501234308 6 202 0.0 0.0 0.00 0.00 0.00 66 1014.7
20260501233807 6 211 0.0 0.0 0.00 0.00 0.00 67 1014.7
20260501233304 6 244 0.0 0.0 0.00 0.00 0.00 66 1014.7
20260501232759 6 199 0.0 0.0 0.00 0.00 0.00 66 1014.7
20260501232256 6 222 1.6 1.6 0.00 0.00 0.00 66 1014.6
20260501231754 6 300 1.6 4.8 0.00 0.00 0.00 64 1014.6
20260501231252 6 250 0.0 1.6 0.00 0.00 0.00 65 1014.6
20260501230750 7 211 0.0 0.0 0.00 0.00 0.00 63 1014.6
20260501230248 6 200 0.0 1.6 0.00 0.00 0.00 61 1014.5
20260501225746 7 196 0.0 0.0 0.00 0.00 0.00 61 1014.3
20260501225243 7 207 1.6 1.6 0.00 0.00 0.00 62 1014.4
20260501224739 7 251 4.8 8.0 0.00 0.00 0.00 62 1014.5
20260501224237 7 201 1.6 3.2 0.00 0.00 0.00 60 1014.7
20260501223732 7 202 0.0 0.0 0.00 0.00 0.00 63 1014.4
20260501223229 7 234 1.6 1.6 0.00 0.00 0.00 64 1014.4
20260501222725 7 259 4.8 4.8 0.00 0.00 0.00 63 1014.6
20260501222223 7 222 1.6 1.6 0.00 0.00 0.00 66 1014.4
20260501221719 7 247 9.7 11.3 0.00 0.00 0.00 65 1014.2
20260501221216 7 240 6.4 8.0 0.00 0.00 0.00 65 1014.4
20260501220714 7 184 0.0 0.0 0.00 0.00 0.00 65 1014.3
20260501220211 7 199 0.0 1.6 0.00 0.00 0.00 67 1014.2
20260501215708 7 213 1.6 1.6 0.00 0.00 0.00 66 1014.3
20260501215203 7 53 3.2 8.0 0.00 0.00 0.00 65 1014.3
20260501214658 7 197 0.0 1.6 0.00 0.00 0.00 65 1014.3
20260501214155 7 188 0.0 0.0 0.00 0.00 0.00 67 1014.2
20260501213651 7 196 0.0 1.6 0.00 0.00 0.00 64 1014.3
20260501213147 7 303 1.6 3.2 0.00 0.00 0.00 65 1014.2
20260501212644 7 284 9.7 11.3 0.00 0.00 0.00 67 1014.0
20260501212141 7 277 11.3 12.9 0.00 0.00 0.00 64 1014.2
20260501211637 7 172 0.0 0.0 0.00 0.00 0.00 64 1014.1
20260501211135 7 271 4.8 4.8 0.00 0.00 0.00 66 1014.3